| time (UTC) | temp F | wind direction | speed knots | gust knots | rain 1hr in | rain 24hr in | rain mn in | humidity % | barometer mb |
| 20260503072858 | 69 | 125 | 0.0 | 0.0 | 0.00 | 0.00 | 0.00 | 99 | 1017.6 |
| 20260503072355 | 69 | 122 | 0.0 | 0.0 | 0.00 | 0.00 | 0.00 | 99 | 1017.5 |
| 20260503071852 | 69 | 123 | 0.0 | 0.0 | 0.00 | 0.00 | 0.00 | 99 | 1017.9 |
| 20260503071349 | 69 | 125 | 0.0 | 0.0 | 0.00 | 0.00 | 0.00 | 99 | 1017.8 |
| 20260503070845 | 69 | 122 | 0.0 | 0.0 | 0.00 | 0.00 | 0.00 | 99 | 1017.9 |
| 20260503070343 | 69 | 121 | 0.0 | 0.0 | 0.00 | 0.00 | 0.00 | 99 | 1017.8 |
| 20260503060303 | 70 | 126 | 0.0 | 0.0 | 0.00 | 0.00 | 0.00 | 99 | 1018.3 |
| 20260503054749 | 70 | 122 | 0.0 | 0.0 | 0.00 | 0.00 | 0.00 | 99 | 1018.3 |
| 20260503054246 | 70 | 123 | 0.0 | 0.0 | 0.00 | 0.00 | 0.00 | 99 | 1018.7 |
| 20260503053744 | 70 | 125 | 0.0 | 0.0 | 0.00 | 0.00 | 0.00 | 99 | 1018.7 |
| 20260503053243 | 70 | 127 | 0.0 | 0.0 | 0.00 | 0.00 | 0.00 | 99 | 1018.8 |
| 20260503052738 | 70 | 125 | 0.0 | 0.0 | 0.00 | 0.00 | 0.00 | 99 | 1018.8 |
| 20260503052236 | 70 | 117 | 0.0 | 0.0 | 0.00 | 0.00 | 0.00 | 99 | 1018.7 |
| 20260503051730 | 71 | 119 | 0.0 | 0.0 | 0.00 | 0.00 | 0.00 | 99 | 1018.5 |
| 20260503051228 | 71 | 122 | 0.0 | 0.0 | 0.00 | 0.00 | 0.00 | 99 | 1018.9 |
| 20260503050725 | 71 | 120 | 0.0 | 0.0 | 0.00 | 0.00 | 0.00 | 99 | 1018.8 |
| 20260503050221 | 71 | 131 | 0.0 | 0.0 | 0.00 | 0.00 | 0.00 | 99 | 1019.1 |
| 20260503045719 | 71 | 123 | 0.0 | 0.0 | 0.00 | 0.00 | 0.00 | 99 | 1018.9 |
| 20260503045216 | 71 | 122 | 0.0 | 0.0 | 0.00 | 0.00 | 0.00 | 99 | 1019.1 |
| 20260503044713 | 71 | 109 | 0.0 | 0.0 | 0.00 | 0.00 | 0.00 | 99 | 1019.0 |
| 20260503044210 | 71 | 117 | 0.0 | 0.0 | 0.00 | 0.00 | 0.00 | 99 | 1019.0 |
| 20260503043707 | 71 | 113 | 0.0 | 0.0 | 0.00 | 0.00 | 0.00 | 99 | 1018.9 |
| 20260503043205 | 72 | 112 | 0.0 | 0.0 | 0.00 | 0.00 | 0.00 | 99 | 1019.1 |
| 20260503042700 | 72 | 121 | 0.0 | 0.0 | 0.00 | 0.00 | 0.00 | 99 | 1019.1 |
| 20260503042156 | 72 | 122 | 0.0 | 0.0 | 0.00 | 0.00 | 0.00 | 99 | 1019.0 |
| 20260503041652 | 73 | 121 | 0.0 | 0.0 | 0.00 | 0.00 | 0.00 | 99 | 1019.3 |
| 20260503041150 | 73 | 118 | 0.0 | 0.0 | 0.00 | 0.00 | 0.00 | 99 | 1019.2 |
| 20260503040648 | 73 | 126 | 0.0 | 0.0 | 0.00 | 0.00 | 0.00 | 99 | 1019.4 |
| 20260503040145 | 73 | 128 | 0.0 | 0.0 | 0.00 | 0.00 | 0.00 | 99 | 1019.4 |
| 20260503035642 | 73 | 120 | 0.0 | 0.0 | 0.00 | 0.07 | 0.07 | 99 | 1019.5 |
| 20260503035139 | 73 | 122 | 0.0 | 0.0 | 0.00 | 0.07 | 0.07 | 99 | 1019.5 |
| 20260503034637 | 74 | 120 | 0.0 | 0.0 | 0.00 | 0.07 | 0.07 | 99 | 1019.5 |
| 20260503034134 | 74 | 121 | 0.0 | 0.0 | 0.00 | 0.07 | 0.07 | 99 | 1019.6 |
| 20260503033630 | 74 | 121 | 0.0 | 0.0 | 0.00 | 0.07 | 0.07 | 99 | 1019.3 |
| 20260503033128 | 74 | 120 | 0.0 | 0.0 | 0.00 | 0.07 | 0.07 | 99 | 1019.4 |
| 20260503032627 | 74 | 122 | 0.0 | 0.0 | 0.00 | 0.07 | 0.07 | 99 | 1019.2 |
| 20260503032125 | 74 | 127 | 0.0 | 0.0 | 0.00 | 0.07 | 0.07 | 99 | 1019.4 |
| 20260503031622 | 74 | 122 | 0.0 | 0.0 | 0.00 | 0.07 | 0.07 | 99 | 1019.2 |
| 20260503031119 | 74 | 127 | 0.0 | 0.0 | 0.00 | 0.07 | 0.07 | 99 | 1019.5 |
| 20260503030615 | 74 | 125 | 0.0 | 0.0 | 0.00 | 0.07 | 0.07 | 99 | 1019.5 |
| 20260503030112 | 74 | 121 | 0.0 | 0.0 | 0.00 | 0.07 | 0.07 | 99 | 1019.3 |
| 20260503025609 | 74 | 120 | 0.0 | 0.0 | 0.00 | 0.07 | 0.07 | 99 | 1019.3 |
| 20260503025107 | 74 | 116 | 0.0 | 0.9 | 0.00 | 0.07 | 0.07 | 99 | 1019.4 |
| 20260503024603 | 74 | 123 | 0.0 | 0.0 | 0.00 | 0.07 | 0.07 | 99 | 1019.3 |
| 20260503024100 | 74 | 120 | 0.0 | 0.9 | 0.00 | 0.07 | 0.07 | 99 | 1019.2 |
| 20260503023557 | 75 | 109 | 0.0 | 0.0 | 0.00 | 0.07 | 0.07 | 99 | 1019.3 |
| 20260503023054 | 75 | 122 | 0.0 | 0.0 | 0.00 | 0.07 | 0.07 | 99 | 1019.3 |
| 20260503022550 | 75 | 122 | 0.0 | 0.0 | 0.00 | 0.07 | 0.07 | 99 | 1019.2 |
| 20260503022045 | 75 | 123 | 0.0 | 0.0 | 0.00 | 0.07 | 0.07 | 99 | 1019.2 |
| 20260503021542 | 75 | 125 | 0.0 | 0.0 | 0.00 | 0.07 | 0.07 | 99 | 1019.0 |
| 20260503021039 | 75 | 122 | 0.0 | 0.0 | 0.00 | 0.07 | 0.07 | 99 | 1018.9 |
| 20260503020536 | 75 | 123 | 0.0 | 0.0 | 0.00 | 0.07 | 0.07 | 99 | 1018.9 |
| 20260503020033 | 75 | 118 | 0.0 | 0.9 | 0.00 | 0.07 | 0.07 | 99 | 1018.9 |
| 20260503015529 | 75 | 125 | 0.0 | 0.0 | 0.00 | 0.07 | 0.07 | 99 | 1018.9 |
| 20260503015027 | 75 | 116 | 0.0 | 0.0 | 0.00 | 0.07 | 0.07 | 99 | 1018.6 |
| 20260503014522 | 75 | 120 | 0.0 | 0.0 | 0.00 | 0.07 | 0.07 | 99 | 1018.7 |
| 20260503014021 | 76 | 86 | 0.9 | 1.7 | 0.00 | 0.07 | 0.07 | 99 | 1018.7 |
| 20260503013518 | 76 | 114 | 0.0 | 0.9 | 0.00 | 0.07 | 0.07 | 99 | 1018.6 |
| 20260503013015 | 76 | 98 | 0.9 | 1.7 | 0.00 | 0.07 | 0.07 | 99 | 1018.7 |
| 20260503012513 | 76 | 121 | 0.0 | 0.0 | 0.00 | 0.07 | 0.07 | 99 | 1018.5 |
| 20260503012009 | 76 | 112 | 0.0 | 0.0 | 0.00 | 0.07 | 0.07 | 99 | 1018.3 |
| 20260503011506 | 76 | 104 | 0.0 | 0.0 | 0.00 | 0.07 | 0.07 | 99 | 1018.3 |
| 20260503011003 | 76 | 120 | 0.0 | 0.0 | 0.00 | 0.07 | 0.07 | 99 | 1018.1 |
| 20260503010459 | 76 | 116 | 0.0 | 0.0 | 0.00 | 0.07 | 0.07 | 99 | 1018.2 |
| 20260503005957 | 76 | 112 | 0.0 | 0.0 | 0.00 | 0.07 | 0.07 | 99 | 1018.2 |
| 20260503005454 | 76 | 118 | 0.0 | 0.0 | 0.00 | 0.07 | 0.07 | 99 | 1018.1 |
| 20260503004950 | 76 | 89 | 0.0 | 0.0 | 0.00 | 0.07 | 0.07 | 99 | 1018.0 |
| 20260503004447 | 76 | 121 | 0.0 | 0.0 | 0.00 | 0.07 | 0.07 | 99 | 1018.0 |
| 20260503003945 | 76 | 119 | 0.0 | 0.0 | 0.00 | 0.07 | 0.07 | 99 | 1017.8 |
| 20260503003441 | 76 | 113 | 0.0 | 0.0 | 0.00 | 0.07 | 0.07 | 99 | 1018.0 |
| 20260503002938 | 76 | 121 | 0.0 | 0.0 | 0.00 | 0.07 | 0.07 | 99 | 1018.0 |
| 20260503002435 | 76 | 117 | 0.0 | 0.0 | 0.00 | 0.07 | 0.07 | 99 | 1017.9 |
| 20260503001932 | 76 | 121 | 0.0 | 0.0 | 0.00 | 0.07 | 0.07 | 99 | 1017.7 |
| 20260503001428 | 76 | 118 | 0.0 | 0.0 | 0.00 | 0.07 | 0.07 | 99 | 1017.9 |
| 20260503000926 | 76 | 119 | 0.0 | 0.0 | 0.00 | 0.07 | 0.07 | 99 | 1017.7 |
| 20260503000423 | 77 | 116 | 0.0 | 0.0 | 0.00 | 0.07 | 0.07 | 99 | 1017.5 |
| 20260502235920 | 77 | 118 | 0.0 | 0.0 | 0.00 | 0.07 | 0.07 | 99 | 1017.5 |
| 20260502235417 | 77 | 113 | 0.0 | 0.0 | 0.00 | 0.07 | 0.07 | 99 | 1017.4 |
| 20260502234914 | 77 | 117 | 0.0 | 0.0 | 0.00 | 0.07 | 0.07 | 99 | 1017.5 |
| 20260502234411 | 77 | 122 | 0.0 | 0.0 | 0.00 | 0.07 | 0.07 | 99 | 1017.3 |
| 20260502233908 | 77 | 115 | 0.0 | 0.0 | 0.00 | 0.07 | 0.07 | 99 | 1017.3 |
| 20260502233403 | 77 | 112 | 0.0 | 0.0 | 0.00 | 0.07 | 0.07 | 99 | 1017.2 |
| 20260502232901 | 77 | 119 | 0.0 | 0.0 | 0.00 | 0.07 | 0.07 | 99 | 1017.0 |
| 20260502232357 | 77 | 116 | 0.0 | 0.0 | 0.00 | 0.07 | 0.07 | 99 | 1017.1 |
| 20260502231854 | 77 | 113 | 0.0 | 0.0 | 0.00 | 0.07 | 0.07 | 99 | 1017.1 |
| 20260502231352 | 77 | 117 | 0.0 | 0.0 | 0.00 | 0.07 | 0.07 | 99 | 1017.1 |
| 20260502230850 | 77 | 116 | 0.0 | 0.0 | 0.00 | 0.07 | 0.07 | 99 | 1017.1 |
| 20260502230348 | 77 | 117 | 0.0 | 0.0 | 0.00 | 0.07 | 0.07 | 99 | 1017.0 |
| 20260502225844 | 77 | 114 | 0.0 | 0.0 | 0.00 | 0.07 | 0.07 | 99 | 1016.9 |
| 20260502225341 | 77 | 124 | 0.0 | 0.0 | 0.00 | 0.07 | 0.07 | 99 | 1016.8 |
| 20260502224838 | 77 | 123 | 0.0 | 0.0 | 0.00 | 0.07 | 0.07 | 99 | 1016.7 |
| 20260502224334 | 77 | 122 | 0.0 | 0.0 | 0.00 | 0.07 | 0.07 | 99 | 1017.0 |
| 20260502223831 | 77 | 131 | 0.0 | 0.0 | 0.00 | 0.07 | 0.07 | 99 | 1016.8 |
| 20260502223329 | 77 | 130 | 0.0 | 0.0 | 0.00 | 0.07 | 0.07 | 99 | 1017.0 |
| 20260502222827 | 77 | 127 | 0.0 | 0.0 | 0.00 | 0.07 | 0.07 | 99 | 1016.7 |
| 20260502222324 | 77 | 113 | 0.0 | 0.0 | 0.00 | 0.07 | 0.07 | 99 | 1016.5 |
| 20260502221820 | 77 | 123 | 0.0 | 0.0 | 0.00 | 0.07 | 0.07 | 99 | 1016.7 |
| 20260502221316 | 77 | 120 | 0.0 | 0.9 | 0.00 | 0.07 | 0.07 | 99 | 1016.5 |
| 20260502220814 | 77 | 107 | 0.0 | 1.7 | 0.00 | 0.07 | 0.07 | 99 | 1016.4 |
| 20260502220309 | 77 | 98 | 1.7 | 4.3 | 0.00 | 0.07 | 0.07 | 99 | 1016.5 |
| 20260502215806 | 78 | 74 | 0.0 | 0.9 | 0.00 | 0.07 | 0.07 | 99 | 1016.5 |
| 20260502215305 | 78 | 117 | 0.0 | 0.0 | 0.00 | 0.07 | 0.07 | 99 | 1016.4 |
| 20260502214800 | 78 | 122 | 0.0 | 0.9 | 0.00 | 0.07 | 0.07 | 99 | 1016.3 |
| 20260502214256 | 78 | 119 | 0.9 | 2.6 | 0.00 | 0.07 | 0.07 | 99 | 1016.3 |
| 20260502213754 | 78 | 120 | 0.0 | 4.3 | 0.07 | 0.07 | 0.07 | 99 | 1016.3 |
| 20260502213251 | 78 | 113 | 0.0 | 1.7 | 0.07 | 0.07 | 0.07 | 99 | 1016.1 |
| 20260502212750 | 79 | 126 | 0.0 | 0.9 | 0.07 | 0.06 | 0.06 | 99 | 1016.1 |
| 20260502212248 | 79 | 107 | 0.9 | 2.6 | 0.05 | 0.05 | 0.05 | 99 | 1016.1 |
| 20260502211743 | 80 | 101 | 0.9 | 2.6 | 0.17 | 0.05 | 0.05 | 97 | 1016.1 |
| 20260502211240 | 81 | 118 | 0.0 | 0.9 | 0.05 | 0.03 | 0.03 | 95 | 1016.1 |
| 20260502210737 | 81 | 126 | 0.0 | 0.9 | 0.00 | 0.02 | 0.02 | 95 | 1015.9 |
| 20260502210235 | 80 | 54 | 1.7 | 2.6 | 0.00 | 0.02 | 0.02 | 94 | 1016.0 |
| 20260502205732 | 80 | 121 | 0.9 | 2.6 | 0.00 | 0.02 | 0.02 | 94 | 1015.9 |
| 20260502205228 | 81 | 121 | 0.0 | 0.9 | 0.00 | 0.02 | 0.02 | 94 | 1015.7 |
| 20260502204725 | 81 | 111 | 0.9 | 1.7 | 0.00 | 0.02 | 0.02 | 92 | 1016.0 |
| 20260502204223 | 81 | 122 | 0.0 | 0.0 | 0.00 | 0.02 | 0.02 | 93 | 1016.0 |
| 20260502203720 | 81 | 95 | 0.9 | 0.9 | 0.00 | 0.02 | 0.02 | 92 | 1016.0 |
| 20260502203218 | 81 | 354 | 2.6 | 4.3 | 0.07 | 0.02 | 0.02 | 89 | 1015.7 |
| 20260502202712 | 81 | 117 | 0.9 | 1.7 | 0.07 | 0.02 | 0.02 | 89 | 1016.0 |
| 20260502202211 | 81 | 116 | 1.7 | 1.7 | 0.05 | 0.01 | 0.01 | 89 | 1015.8 |
| 20260502201708 | 82 | 145 | 0.9 | 2.6 | 0.05 | 0.01 | 0.01 | 87 | 1015.8 |
| 20260502201204 | 84 | 95 | 1.7 | 2.6 | 0.00 | 0.00 | 0.00 | 82 | 1015.8 |
| 20260502200700 | 84 | 53 | 0.9 | 4.3 | 0.00 | 0.00 | 0.00 | 81 | 1015.8 |
| 20260502200156 | 85 | 159 | 0.9 | 1.7 | 0.00 | 0.00 | 0.00 | 80 | 1016.0 |
| 20260502195655 | 86 | 120 | 0.0 | 4.3 | 0.00 | 0.00 | 0.00 | 80 | 1016.0 |
| 20260502195151 | 86 | 127 | 1.7 | 1.7 | 0.00 | 0.00 | 0.00 | 76 | 1016.0 |
| 20260502194648 | 86 | 103 | 0.9 | 2.6 | 0.00 | 0.00 | 0.00 | 76 | 1015.8 |
| 20260502194144 | 86 | 114 | 0.9 | 5.2 | 0.00 | 0.00 | 0.00 | 77 | 1016.0 |
| 20260502193641 | 86 | 136 | 0.9 | 4.3 | 0.00 | 0.00 | 0.00 | 77 | 1015.8 |
| 20260502193138 | 87 | 94 | 2.6 | 4.3 | 0.00 | 0.00 | 0.00 | 75 | 1015.9 |
| 20260502192633 | 87 | 23 | 1.7 | 2.6 | 0.00 | 0.00 | 0.00 | 73 | 1016.0 |
| 20260502192131 | 87 | 68 | 1.7 | 5.2 | 0.00 | 0.00 | 0.00 | 73 | 1016.1 |
| 20260502191628 | 89 | 124 | 0.9 | 1.7 | 0.00 | 0.00 | 0.00 | 70 | 1015.8 |
| 20260502191125 | 89 | 219 | 2.6 | 4.3 | 0.00 | 0.00 | 0.00 | 70 | 1016.1 |
| 20260502190623 | 90 | 143 | 1.7 | 2.6 | 0.00 | 0.00 | 0.00 | 66 | 1015.9 |
| 20260502190121 | 92 | 225 | 4.3 | 6.1 | 0.00 | 0.00 | 0.00 | 66 | 1015.8 |
| 20260502185614 | 93 | 148 | 1.7 | 2.6 | 0.00 | 0.00 | 0.00 | 64 | 1015.8 |
| 20260502185112 | 92 | 122 | 0.0 | 2.6 | 0.00 | 0.00 | 0.00 | 65 | 1016.0 |
| 20260502184608 | 90 | 119 | 0.9 | 0.9 | 0.00 | 0.00 | 0.00 | 65 | 1016.3 |
| 20260502184103 | 89 | 166 | 1.7 | 4.3 | 0.00 | 0.00 | 0.00 | 68 | 1016.0 |
| 20260502183600 | 90 | 100 | 0.9 | 5.2 | 0.00 | 0.00 | 0.00 | 64 | 1016.4 |
| 20260502183056 | 90 | 132 | 2.6 | 5.2 | 0.00 | 0.00 | 0.00 | 66 | 1016.5 |
| 20260502182551 | 91 | 109 | 1.7 | 4.3 | 0.00 | 0.00 | 0.00 | 63 | 1016.4 |
| 20260502182047 | 91 | 66 | 3.5 | 5.2 | 0.00 | 0.00 | 0.00 | 65 | 1016.5 |
| 20260502181546 | 93 | 141 | 0.9 | 1.7 | 0.00 | 0.00 | 0.00 | 61 | 1016.3 |
| 20260502181044 | 92 | 207 | 0.9 | 5.2 | 0.00 | 0.00 | 0.00 | 63 | 1016.4 |
| 20260502180541 | 91 | 256 | 2.6 | 6.1 | 0.00 | 0.00 | 0.00 | 64 | 1016.5 |
| 20260502170500 | 91 | 231 | 4.3 | 9.6 | 0.00 | 0.00 | 0.00 | 64 | 1016.8 |
| 20260502163943 | 92 | 126 | 0.0 | 1.7 | 0.00 | 0.00 | 0.00 | 58 | 1017.2 |
| 20260502163439 | 92 | 114 | 0.9 | 4.3 | 0.00 | 0.00 | 0.00 | 61 | 1017.5 |
| 20260502162937 | 89 | 158 | 1.7 | 1.7 | 0.00 | 0.00 | 0.00 | 64 | 1017.2 |
| 20260502162434 | 91 | 132 | 4.3 | 5.2 | 0.00 | 0.00 | 0.00 | 62 | 1017.8 |
| 20260502161931 | 90 | 145 | 1.7 | 4.3 | 0.00 | 0.00 | 0.00 | 63 | 1017.5 |
| 20260502161427 | 89 | 136 | 0.0 | 4.3 | 0.00 | 0.00 | 0.00 | 63 | 1017.8 |
| 20260502160925 | 90 | 246 | 5.2 | 6.1 | 0.00 | 0.00 | 0.00 | 64 | 1017.7 |
| 20260502160423 | 92 | 118 | 0.0 | 0.9 | 0.00 | 0.00 | 0.00 | 58 | 1017.9 |
| 20260502151901 | 88 | 201 | 2.6 | 2.6 | 0.00 | 0.00 | 0.00 | 67 | 1018.4 |
| 20260502151357 | 89 | 205 | 2.6 | 2.6 | 0.00 | 0.00 | 0.00 | 66 | 1018.4 |
| 20260502150855 | 87 | 238 | 2.6 | 4.3 | 0.00 | 0.00 | 0.00 | 69 | 1018.7 |
| 20260502150351 | 87 | 204 | 4.3 | 6.1 | 0.00 | 0.00 | 0.00 | 71 | 1018.6 |
| 20260502130739 | 86 | 109 | 0.9 | 2.6 | 0.00 | 0.00 | 0.00 | 68 | 1018.6 |
| 20260502130237 | 85 | 110 | 0.9 | 2.6 | 0.00 | 0.00 | 0.00 | 67 | 1018.3 |
| 20260502123723 | 83 | 134 | 1.7 | 2.6 | 0.00 | 0.00 | 0.00 | 77 | 1018.1 |
| 20260502123219 | 83 | 163 | 1.7 | 2.6 | 0.00 | 0.00 | 0.00 | 77 | 1018.1 |
| 20260502122716 | 84 | 154 | 2.6 | 2.6 | 0.00 | 0.00 | 0.00 | 77 | 1018.0 |
| 20260502122213 | 84 | 144 | 0.9 | 1.7 | 0.00 | 0.00 | 0.00 | 79 | 1017.9 |
| 20260502121711 | 83 | 124 | 0.0 | 1.7 | 0.00 | 0.00 | 0.00 | 78 | 1017.7 |
| 20260502121209 | 82 | 136 | 0.9 | 1.7 | 0.00 | 0.00 | 0.00 | 80 | 1017.7 |
| 20260502120705 | 82 | 129 | 0.9 | 0.9 | 0.00 | 0.00 | 0.00 | 81 | 1017.7 |
| 20260502120202 | 82 | 125 | 0.0 | 0.9 | 0.00 | 0.00 | 0.00 | 84 | 1017.7 |
| 20260502115700 | 80 | 122 | 0.0 | 0.9 | 0.00 | 0.00 | 0.00 | 87 | 1017.8 |
| 20260502115156 | 76 | 125 | 0.0 | 0.0 | 0.00 | 0.00 | 0.00 | 98 | 1017.8 |
| 20260502114652 | 75 | 121 | 0.0 | 0.0 | 0.00 | 0.00 | 0.00 | 99 | 1017.5 |
| 20260502114149 | 77 | 126 | 0.0 | 0.0 | 0.00 | 0.00 | 0.00 | 99 | 1017.6 |
| 20260502113646 | 74 | 130 | 0.0 | 0.0 | 0.00 | 0.00 | 0.00 | 99 | 1017.7 |
| 20260502113144 | 73 | 131 | 0.0 | 0.0 | 0.00 | 0.00 | 0.00 | 99 | 1017.6 |
| 20260502112642 | 74 | 147 | 0.0 | 0.0 | 0.00 | 0.00 | 0.00 | 99 | 1017.6 |
| 20260502112139 | 73 | 124 | 0.0 | 0.0 | 0.00 | 0.00 | 0.00 | 99 | 1017.4 |
| 20260502111637 | 72 | 122 | 0.0 | 0.0 | 0.00 | 0.00 | 0.00 | 99 | 1017.6 |
| 20260502111134 | 73 | 142 | 0.0 | 0.0 | 0.00 | 0.00 | 0.00 | 99 | 1017.2 |
| 20260502110632 | 72 | 124 | 0.0 | 0.0 | 0.00 | 0.00 | 0.00 | 99 | 1017.3 |
| 20260502110129 | 72 | 128 | 0.0 | 0.0 | 0.00 | 0.00 | 0.00 | 99 | 1017.3 |
| 20260502105626 | 72 | 123 | 0.0 | 0.0 | 0.00 | 0.00 | 0.00 | 99 | 1017.1 |
| 20260502105123 | 73 | 127 | 0.0 | 0.0 | 0.00 | 0.00 | 0.00 | 99 | 1017.0 |
| 20260502104620 | 71 | 127 | 0.0 | 0.0 | 0.00 | 0.00 | 0.00 | 99 | 1017.1 |
| 20260502104118 | 70 | 120 | 0.0 | 0.0 | 0.00 | 0.00 | 0.00 | 99 | 1017.0 |
| 20260502103615 | 70 | 120 | 0.0 | 0.0 | 0.00 | 0.00 | 0.00 | 99 | 1016.9 |
| 20260502103113 | 70 | 124 | 0.0 | 0.0 | 0.00 | 0.00 | 0.00 | 99 | 1017.0 |
| 20260502102610 | 70 | 126 | 0.0 | 0.9 | 0.00 | 0.00 | 0.00 | 99 | 1016.9 |
| 20260502102106 | 70 | 121 | 0.0 | 0.0 | 0.00 | 0.00 | 0.00 | 99 | 1016.8 |
| 20260502101604 | 70 | 123 | 0.0 | 0.0 | 0.00 | 0.00 | 0.00 | 99 | 1016.9 |
| 20260502101102 | 70 | 128 | 0.0 | 0.0 | 0.00 | 0.00 | 0.00 | 99 | 1016.9 |
| 20260502100601 | 70 | 123 | 0.0 | 0.0 | 0.00 | 0.00 | 0.00 | 99 | 1016.7 |
| 20260502091033 | 71 | 119 | 0.0 | 0.0 | 0.00 | 0.00 | 0.00 | 99 | 1016.3 |
| 20260502090529 | 71 | 119 | 0.0 | 0.0 | 0.00 | 0.00 | 0.00 | 99 | 1016.1 |